sat.trackr.live / text

‹ back to catalog

STARLINK-30899

NORAD 58420 · 2023-180U

PAYLOAD ACTIVE UNKNOWN

§ Identity

Operator
Country
US
Launch date
2023-11-22
Launch site
AFETR
Launch vehicle
Mass (kg)
RCS (m²)

Purposes: comms

External: N2YO · Heavens-Above · Gunter

§ Orbital elements

Epoch: 2026-09-20T15:11:13.622784Z

Period
94.27 min
Inclination
43.0031°
Eccentricity
0.0001584
Mean motion
15.27579552 rev/d
Perigee alt
482.0 km
Apogee alt
484.1 km
Semi-major
6,861.2 km
B*
2.0091e-5
RAAN
31.3032°
Arg perigee
269.2169°
Mean anomaly
90.8501°
Rev number
15,732

§ Raw data

STARLINK-308991 58420U 23180U   26263.63279656  .00000291  00000+0  20091-4 0  99932 58420  43.0031  31.3032 0001584 269.2169  90.8501 15.27579552157326

JSON: /api/v1/satellites/58420 · /tle

For live sub-satellite position, see the globe view (requires WebGL).

§ Visibility from observer

Set your observer location to see the next 7 days of passes ≥ 10°. The values pass through the URL so the page stays shareable.

No JS? Fill the form by hand. The geolocation button needs JavaScript.